TimeCDT,TemperatureF,Dew PointF,Humidity,Sea Level PressureIn,VisibilityMPH,Wind Direction,Wind SpeedMPH,Gust SpeedMPH,PrecipitationIn,Events,Conditions,WindDirDegrees,DateUTC
12:53 AM,68.0,64.0,87,30.07,10.0,West,5.8,-,N/A,,Clear,270,2013-08-01 05:53:00
1:53 AM,66.9,63.0,87,30.06,10.0,WNW,5.8,-,N/A,,Clear,290,2013-08-01 06:53:00
2:53 AM,64.9,62.1,90,30.07,10.0,WNW,5.8,-,N/A,,Partly Cloudy,290,2013-08-01 07:53:00
3:53 AM,64.0,61.0,90,30.06,9.0,NNW,3.5,-,N/A,,Clear,330,2013-08-01 08:53:00
4:53 AM,64.9,62.1,90,30.06,9.0,Calm,Calm,-,N/A,,Clear,0,2013-08-01 09:53:00
5:53 AM,63.0,61.0,93,30.06,8.0,North,4.6,-,N/A,,Clear,10,2013-08-01 10:53:00
6:53 AM,62.1,60.1,93,30.08,3.0,West,3.5,-,N/A,,Clear,260,2013-08-01 11:53:00
7:53 AM,68.0,64.0,87,30.08,9.0,SW,3.5,-,N/A,,Clear,220,2013-08-01 12:53:00
8:53 AM,73.9,64.0,71,30.09,10.0,Calm,Calm,-,N/A,,Clear,0,2013-08-01 13:53:00
9:53 AM,75.9,62.1,62,30.09,10.0,Calm,Calm,-,N/A,,Clear,0,2013-08-01 14:53:00
10:53 AM,79.0,64.0,60,30.08,10.0,Variable,3.5,-,N/A,,Clear,0,2013-08-01 15:53:00
11:53 AM,81.0,63.0,54,30.08,10.0,SE,3.5,-,N/A,,Clear,130,2013-08-01 16:53:00
12:53 PM,82.0,61.0,49,30.07,10.0,SW,5.8,-,N/A,,Clear,230,2013-08-01 17:53:00
1:53 PM,82.0,60.1,47,30.05,10.0,Calm,Calm,-,N/A,,Partly Cloudy,0,2013-08-01 18:53:00
2:53 PM,82.9,63.0,51,30.03,10.0,SSE,4.6,-,N/A,,Partly Cloudy,160,2013-08-01 19:53:00
3:53 PM,82.9,63.0,51,29.99,10.0,South,9.2,16.1,N/A,,Partly Cloudy,180,2013-08-01 20:53:00
4:53 PM,84.0,61.0,46,29.99,10.0,South,8.1,-,N/A,,Clear,190,2013-08-01 21:53:00
5:53 PM,82.0,64.0,54,29.97,10.0,SSW,5.8,-,N/A,,Clear,210,2013-08-01 22:53:00
6:53 PM,80.1,64.9,60,29.98,10.0,WSW,5.8,-,N/A,,Clear,240,2013-08-01 23:53:00
7:53 PM,78.1,64.9,64,29.95,10.0,SW,4.6,-,N/A,,Clear,230,2013-08-02 00:53:00
8:53 PM,75.0,66.9,76,29.95,10.0,SSW,5.8,-,N/A,,Clear,210,2013-08-02 01:53:00
9:53 PM,73.9,66.0,76,29.94,10.0,SSW,6.9,-,N/A,,Partly Cloudy,210,2013-08-02 02:53:00
10:53 PM,73.9,66.0,76,29.94,10.0,SSW,4.6,-,N/A,,Clear,210,2013-08-02 03:53:00
11:53 PM,73.0,66.9,81,29.91,10.0,South,8.1,-,N/A,,Clear,190,2013-08-02 04:53:00